Regional Weather Roundup
Issued by NWS Upton, NY

Current Version | Previous Version | Text Only | Print | Product List | Glossary On
Versions: 1 2 3 4 5 6 7 8 9 10 11 12 13 14 15 16 17 18 19 20 21 22 23 24 25 26 27
000 ASUS41 KOKX 161208 RWROKX REGIONAL WEATHER ROUNDUP NATIONAL WEATHER SERVICE NEW YORK NY 700 AM EST MON JAN 16 2017 NOTE: "FAIR" INDICATES FEW OR NO CLOUDS BELOW 12,000 FEET WITH NO SIGNIFICANT WEATHER AND/OR OBSTRUCTIONS TO VISIBILITY. NYZ071-072-176-178-NJZ106-104-161300- NEW YORK CITY METRO AREA CITY SKY/WX TMP DP RH WIND PRES REMARKS Central Park CLEAR 30 19 63 N3 30.47R Wall St Helipt SUNNY 32 21 64 SW3 30.47S Bronx Bot Gard NOT AVBL LaGuardia APRT CLEAR 32 18 56 CALM 30.46R Kennedy INTL PTCLDY 30 18 60 CALM 30.47R Breezy Point N/A N/A N/A N/A NE3 N/A Newark/Liberty PTCLDY 26 18 71 NE6 30.46R WCI 19 Teterboro CLEAR 26 20 77 CALM 30.46R $$ NYZ177-179-078>081-161300- LONG ISLAND NEW YORK CITY SKY/WX TMP DP RH WIND PRES REMARKS Jones Beach N/A N/A N/A N/A N7 N/A Matinecock PT N/A 32 N/A N/A NE5 N/A WCI 27 Farmingdale CLEAR 25 17 72 CALM 30.46R MacArthur/ISP CLEAR 23 19 85 CALM 30.44R Shirley CLEAR 20 18 92 CALM 30.45R Westhampton CLEAR 13 10 88 NW3 30.46R Southampton NOT AVBL Bridgehampton NOT AVBL East Hampton N/A 16 13 90 CALM 30.44R Montauk N/A 21 17 84 CALM 30.44S $$ NYZ052-065-067-161300- HUDSON VALLEY CITY SKY/WX TMP DP RH WIND PRES REMARKS White Plains CLEAR 21 17 84 W3 30.43R Newburgh CLEAR 16 16 100 CALM 30.44R Montgomery CLEAR 15 12 88 SW5 30.42S WCI 8 Poughkeepsie CLEAR 14 11 87 CALM 30.45R Albany CLEAR 15 10 80 CALM 30.43S $$ NJZ001-105-106-008-010-013-015-019>022-104-161300- NEW JERSEY CITY SKY/WX TMP DP RH WIND PRES REMARKS Newark/Liberty PTCLDY 26 18 71 NE6 30.46R WCI 19 Teterboro CLEAR 26 20 77 CALM 30.46R Caldwell CLEAR 19 16 88 CALM 30.47R Somerville CLOUDY 14 10 84 CALM 30.45S Linden N/A 25 19 77 CALM 30.47S Sussex CLOUDY 11 8 88 CALM 30.43S Andover N/A 14 10 84 CALM 30.44S Trenton CLEAR 23 18 81 CALM 30.45R Millville CLOUDY 21 20 96 CALM 30.47R Atlantic City CLOUDY 23 17 78 W3 30.46R Wrightstown CLOUDY 22 18 85 NW3 30.43R Toms River CLOUDY 15 13 91 CALM 30.47R Belmar CLEAR 22 19 89 W5 30.46R WCI 16 $$ PAZ047>061-062-071-161300- EASTERN PENNSYLVANIA CITY SKY/WX TMP DP RH WIND PRES REMARKS Philadelphia CLOUDY 28 19 69 NW6 30.48R WCI 22 Allentown CLOUDY 14 9 80 CALM 30.45R Scranton CLOUDY 14 10 84 E5 30.40F WCI 6 $$ CTZ002-004>006-009-010-012-RIZ004-006-007-MAZ004-011-015-161300- SOUTHERN NEW ENGLAND IN CT CITY SKY/WX TMP DP RH WIND PRES REMARKS Bradley INTL CLEAR 17 13 84 CALM 30.43S Hartford CLEAR 17 15 92 CALM 30.45S Danbury CLEAR 14 10 84 CALM 30.45R Wtrbury/Oxford CLEAR 19 12 73 N3 30.41S Bridgeport CLEAR 24 16 71 CALM 30.45R Meriden CLEAR 17 12 80 CALM 30.45S New Haven CLEAR 21 16 81 CALM 30.45R Chester N/A 23 14 68 CALM 30.41F Groton CLEAR 21 15 78 N5 30.44R WCI 15 Wilimantic CLEAR 16 12 84 CALM 30.44S IN RI CITY SKY/WX TMP DP RH WIND PRES REMARKS Providence PTCLDY 19 15 84 W3 30.44S Block Island NOT AVBL Westerly CLEAR 18 13 80 CALM 30.45R IN MA CITY SKY/WX TMP DP RH WIND PRES REMARKS Boston CLEAR 24 15 68 CALM 30.44R Worcester CLEAR 20 12 71 W7 30.36S WCI 11 Westfield CLEAR 12 10 92 CALM 30.43R Provincetown CLEAR 19 14 81 CALM 30.43F Nantucket CLEAR 22 15 75 CALM 30.43S $$ ANZ330-335-338-340-345-350-353-355-161300- COASTAL MARINE OBSERVATIONS STATION/POSITION TIME SKY/WX TEMP WIND PRES VSBY WAVE AIR SEA DIR/SP/G HT/PER (UTC) (F) (DEG/KT/KT) (MB) (MI) (FT/S) NY HARB ENTRANCE 1050 35 43 50/ 8/ 10 1030.7 2/11 20 S FIRE ISLAND 1050 37 45 40/ 8/ 10 1030.2 2/10 GREAT SOUTH BAY NOT AVBL 23 SSW MONTAUK P 1050 37 47 350/ 6/ 8 1030.8 2/11 15 E BARNEGAT LI 1130 45 N/A 2/10 HUDSON CANYON 1050 42 53 1030.1 2/ 9 KINGS POINT 1130 29 38 1031.1 EXECUTION ROCKS 1145 30 340/ 6/ 8 N/A CENTRAL LI SOUND 1130 31 350/ 6/ 8 N/A 1 EASTERN LI SOUND NOT AVBL ROBBINS REEF 1130 28 320/ 4/ 5 1031.5 $$ >>>>>>>>>>>>>>>>>>>>>>>>>>>> KEY <<<<<<<<<<<<<<<<<<<<<<<<<<< > < > SKY/WX - Sky Condition/Present Weather < > TMP - Temperature in Fahrenheit < > DP - Dew Point in Fahrenheit < > RH - Relative Humidity in Percent < > WIND - Direction (from) and Speed in MPH < > PRES - Mean Sea Level Pressure (inches of Hg) < > WCI - Wind Chill Index < > VSB - VISIBILITY IN MILES < > HX - HEAT INDEX < > TC - TEMPERATURE IN CELSIUS < > VRB - VARIABLE WIND DIRECTION < > < >>>>>>>>>>>>>>>>>>>>>>>>>>>> KEY <<<<<<<<<<<<<<<<<<<<<<<<<<<

USA.gov is the U.S. government's official web portal to all federal, state and local government web resources and services.